| time (UTC) | temp C | wind direction | speed KPH | gust KPH | rain 1hr cm | rain 24hr cm | rain mn cm | humidity % | barometer mb |
| 20260502130647 | 13 | 37 | 14.5 | 20.9 | 0.00 | 0.00 | 0.00 | 27 | 826.9 |
| 20260502130146 | 13 | 52 | 6.4 | 12.9 | 0.00 | 0.00 | 0.00 | 28 | 826.9 |
| 20260502123645 | 14 | 26 | 9.7 | 12.9 | 0.00 | 0.00 | 0.00 | 25 | 827.2 |
| 20260502123146 | 13 | 52 | 6.4 | 12.9 | 0.00 | 0.00 | 0.00 | 28 | 826.9 |
| 20260502122645 | 13 | 73 | 6.4 | 12.9 | 0.00 | 0.00 | 0.00 | 26 | 827.2 |
| 20260502122145 | 14 | 26 | 9.7 | 12.9 | 0.00 | 0.00 | 0.00 | 25 | 827.2 |
| 20260502121644 | 14 | 47 | 8.0 | 12.9 | 0.00 | 0.00 | 0.00 | 25 | 827.2 |
| 20260502121144 | 13 | 73 | 6.4 | 12.9 | 0.00 | 0.00 | 0.00 | 26 | 827.2 |
| 20260502120644 | 14 | 26 | 9.7 | 12.9 | 0.00 | 0.00 | 0.00 | 25 | 827.2 |
| 20260502120145 | 14 | 47 | 8.0 | 12.9 | 0.00 | 0.00 | 0.00 | 25 | 827.2 |
| 20260502115643 | 14 | 29 | 9.7 | 12.9 | 0.00 | 0.00 | 0.00 | 25 | 827.5 |
| 20260502115143 | 14 | 26 | 9.7 | 12.9 | 0.00 | 0.00 | 0.00 | 25 | 827.5 |
| 20260502114643 | 14 | 47 | 8.0 | 12.9 | 0.00 | 0.00 | 0.00 | 25 | 827.5 |
| 20260502114143 | 14 | 29 | 9.7 | 12.9 | 0.00 | 0.00 | 0.00 | 25 | 827.5 |
| 20260502113643 | 14 | 26 | 9.7 | 12.9 | 0.00 | 0.00 | 0.00 | 25 | 827.5 |
| 20260502113143 | 14 | 26 | 9.7 | 12.9 | 0.00 | 0.00 | 0.00 | 25 | 827.5 |
| 20260502112642 | 14 | 295 | 8.0 | 12.9 | 0.00 | 0.00 | 0.00 | 34 | 828.0 |
| 20260502112142 | 14 | 17 | 9.7 | 12.9 | 0.00 | 0.00 | 0.00 | 25 | 827.5 |
| 20260502111642 | 13 | 299 | 9.7 | 12.9 | 0.00 | 0.00 | 0.00 | 32 | 828.0 |
| 20260502111141 | 14 | 295 | 8.0 | 12.9 | 0.00 | 0.00 | 0.00 | 34 | 828.0 |
| 20260502110641 | 14 | 345 | 8.0 | 12.9 | 0.00 | 0.00 | 0.00 | 27 | 827.9 |
| 20260502110142 | 13 | 299 | 9.7 | 12.9 | 0.00 | 0.00 | 0.00 | 32 | 828.0 |
| 20260502105641 | 14 | 295 | 8.0 | 12.9 | 0.00 | 0.00 | 0.00 | 34 | 828.3 |
| 20260502105141 | 14 | 345 | 8.0 | 12.9 | 0.00 | 0.00 | 0.00 | 27 | 828.2 |
| 20260502104641 | 13 | 299 | 9.7 | 12.9 | 0.00 | 0.00 | 0.00 | 32 | 828.0 |
| 20260502104140 | 14 | 295 | 8.0 | 12.9 | 0.00 | 0.00 | 0.00 | 34 | 828.3 |
| 20260502103641 | 14 | 345 | 8.0 | 12.9 | 0.00 | 0.00 | 0.00 | 27 | 828.2 |
| 20260502103140 | 13 | 299 | 9.7 | 12.9 | 0.00 | 0.00 | 0.00 | 32 | 828.0 |
| 20260502102640 | 14 | 295 | 8.0 | 12.9 | 0.00 | 0.00 | 0.00 | 34 | 828.3 |
| 20260502102139 | 14 | 345 | 8.0 | 12.9 | 0.00 | 0.00 | 0.00 | 27 | 828.2 |
| 20260502101639 | 13 | 299 | 9.7 | 12.9 | 0.00 | 0.00 | 0.00 | 32 | 828.0 |
| 20260502101139 | 14 | 295 | 8.0 | 12.9 | 0.00 | 0.00 | 0.00 | 34 | 828.3 |
| 20260502100639 | 14 | 290 | 9.7 | 9.7 | 0.00 | 0.00 | 0.00 | 30 | 828.9 |
| 20260502100139 | 13 | 299 | 9.7 | 12.9 | 0.00 | 0.00 | 0.00 | 32 | 828.0 |
| 20260502091137 | 14 | 295 | 12.9 | 17.7 | 0.00 | 0.00 | 0.00 | 29 | 828.6 |
| 20260502090636 | 14 | 290 | 9.7 | 9.7 | 0.00 | 0.00 | 0.00 | 30 | 828.6 |
| 20260502090137 | 14 | 319 | 9.7 | 14.5 | 0.00 | 0.00 | 0.00 | 29 | 828.9 |
| 20260502071132 | 14 | 310 | 9.7 | 12.9 | 0.00 | 0.00 | 0.00 | 30 | 828.3 |
| 20260502070631 | 14 | 290 | 9.7 | 9.7 | 0.00 | 0.00 | 0.00 | 30 | 828.3 |
| 20260502070131 | 15 | 281 | 9.7 | 12.9 | 0.00 | 0.00 | 0.00 | 31 | 828.6 |
| 20260502065631 | 14 | 310 | 9.7 | 12.9 | 0.00 | 0.00 | 0.00 | 30 | 827.9 |
| 20260502065131 | 14 | 290 | 9.7 | 9.7 | 0.00 | 0.00 | 0.00 | 30 | 827.9 |
| 20260502064652 | 15 | 281 | 9.7 | 12.9 | 0.00 | 0.46 | 0.00 | 31 | 828.0 |
| 20260502064130 | 14 | 310 | 9.7 | 12.9 | 0.00 | 0.46 | 0.00 | 30 | 827.9 |
| 20260502063630 | 14 | 290 | 9.7 | 9.7 | 0.00 | 0.46 | 0.00 | 30 | 827.9 |
| 20260502063130 | 15 | 281 | 9.7 | 12.9 | 0.00 | 0.46 | 0.00 | 31 | 828.0 |
| 20260502062630 | 14 | 310 | 9.7 | 12.9 | 0.00 | 0.46 | 0.00 | 30 | 827.9 |
| 20260502062129 | 14 | 290 | 9.7 | 9.7 | 0.00 | 0.46 | 0.00 | 30 | 827.9 |
| 20260502061630 | 15 | 281 | 9.7 | 12.9 | 0.00 | 0.46 | 0.00 | 31 | 828.0 |
| 20260502061129 | 14 | 310 | 9.7 | 12.9 | 0.00 | 0.46 | 0.00 | 30 | 827.9 |
| 20260502060628 | 14 | 290 | 9.7 | 9.7 | 0.00 | 0.91 | 0.00 | 30 | 827.9 |
| 20260502060128 | 15 | 281 | 9.7 | 12.9 | 0.00 | 0.91 | 0.00 | 31 | 828.0 |
| 20260502055628 | 15 | 281 | 9.7 | 12.9 | 0.00 | 1.37 | 0.00 | 31 | 828.0 |
| 20260502055128 | 15 | 253 | 9.7 | 12.9 | 0.00 | 1.37 | 0.00 | 32 | 828.3 |
| 20260502054648 | 15 | 281 | 9.7 | 12.9 | 0.00 | 1.37 | 0.00 | 31 | 828.0 |
| 20260502054128 | 15 | 281 | 9.7 | 12.9 | 0.00 | 1.37 | 0.00 | 31 | 828.0 |
| 20260502053627 | 15 | 253 | 9.7 | 12.9 | 0.00 | 1.37 | 0.00 | 32 | 828.3 |
| 20260502053127 | 15 | 281 | 9.7 | 12.9 | 0.00 | 1.83 | 0.00 | 31 | 828.0 |
| 20260502052627 | 15 | 255 | 9.7 | 16.1 | 0.00 | 2.29 | 0.00 | 32 | 827.7 |
| 20260502052128 | 15 | 253 | 9.7 | 12.9 | 0.00 | 2.29 | 0.00 | 32 | 828.0 |
| 20260502051647 | 15 | 281 | 9.7 | 12.9 | 0.00 | 2.29 | 0.00 | 31 | 827.6 |
| 20260502051126 | 15 | 255 | 9.7 | 16.1 | 0.00 | 2.74 | 0.00 | 32 | 827.7 |
| 20260502050626 | 15 | 253 | 9.7 | 12.9 | 0.00 | 2.74 | 0.00 | 32 | 828.0 |
| 20260502050146 | 15 | 291 | 9.7 | 11.3 | 0.00 | 3.20 | 0.00 | 32 | 827.7 |
| 20260502045626 | 15 | 255 | 9.7 | 16.1 | 0.00 | 3.20 | 0.00 | 32 | 827.3 |
| 20260502045125 | 15 | 253 | 9.7 | 12.9 | 0.00 | 3.61 | 0.00 | 32 | 827.6 |
| 20260502044625 | 15 | 291 | 9.7 | 11.3 | 0.00 | 3.61 | 0.00 | 32 | 827.3 |
| 20260502044125 | 15 | 255 | 9.7 | 16.1 | 0.00 | 3.61 | 0.00 | 32 | 827.3 |
| 20260502043645 | 15 | 295 | 12.9 | 17.7 | 0.00 | 6.78 | 0.00 | 32 | 827.0 |
| 20260502043125 | 15 | 273 | 11.3 | 17.7 | 0.00 | 7.44 | 0.00 | 32 | 827.0 |
| 20260502042624 | 15 | 266 | 12.9 | 16.1 | 0.00 | 7.49 | 0.00 | 32 | 827.0 |
| 20260502042124 | 15 | 295 | 12.9 | 17.7 | 0.00 | 7.49 | 0.00 | 32 | 827.0 |
| 20260502041624 | 15 | 273 | 11.3 | 17.7 | 0.00 | 7.49 | 0.00 | 32 | 827.0 |
| 20260502041124 | 15 | 266 | 12.9 | 16.1 | 0.00 | 7.49 | 0.00 | 32 | 827.0 |
| 20260502040623 | 15 | 295 | 12.9 | 17.7 | 0.00 | 7.49 | 0.00 | 32 | 827.0 |
| 20260502040123 | 15 | 273 | 11.3 | 17.7 | 0.00 | 7.49 | 0.00 | 32 | 827.0 |
| 20260502035623 | 15 | 288 | 11.3 | 14.5 | 0.00 | 7.49 | 7.49 | 32 | 827.0 |
| 20260502035143 | 15 | 311 | 11.3 | 14.5 | 0.00 | 7.49 | 7.49 | 32 | 827.0 |
| 20260502034623 | 15 | 237 | 11.3 | 14.5 | 0.00 | 7.49 | 7.49 | 32 | 827.0 |
| 20260502034122 | 15 | 288 | 11.3 | 14.5 | 0.00 | 7.49 | 7.49 | 32 | 827.0 |
| 20260502033622 | 15 | 311 | 11.3 | 14.5 | 0.00 | 7.49 | 7.49 | 32 | 827.0 |
| 20260502033122 | 15 | 299 | 11.3 | 14.5 | 0.00 | 7.49 | 7.49 | 32 | 827.0 |
| 20260502032622 | 15 | 288 | 11.3 | 14.5 | 0.00 | 7.52 | 7.49 | 32 | 826.7 |
| 20260502032142 | 16 | 283 | 14.5 | 20.9 | 0.00 | 7.52 | 7.49 | 34 | 826.7 |
| 20260502031621 | 16 | 281 | 11.3 | 14.5 | 0.00 | 7.52 | 7.49 | 33 | 826.7 |
| 20260502031121 | 16 | 280 | 14.5 | 24.1 | 0.00 | 7.54 | 7.49 | 34 | 826.4 |
| 20260502030621 | 16 | 283 | 14.5 | 20.9 | 0.00 | 7.54 | 7.49 | 34 | 826.7 |
| 20260502030121 | 16 | 285 | 11.3 | 14.5 | 0.00 | 7.54 | 7.49 | 34 | 826.7 |
| 20260502025620 | 16 | 280 | 14.5 | 24.1 | 0.00 | 7.57 | 7.49 | 34 | 826.1 |
| 20260502025120 | 16 | 283 | 14.5 | 20.9 | 0.00 | 11.07 | 7.49 | 34 | 826.4 |
| 20260502024620 | 16 | 285 | 14.5 | 14.5 | 0.00 | 12.80 | 7.49 | 34 | 826.1 |
| 20260502024120 | 16 | 280 | 14.5 | 24.1 | 0.00 | 12.93 | 7.49 | 34 | 826.1 |
| 20260502023620 | 16 | 275 | 12.9 | 17.7 | 0.00 | 12.93 | 7.49 | 34 | 826.4 |
| 20260502023139 | 16 | 287 | 12.9 | 12.9 | 0.00 | 12.93 | 7.49 | 34 | 826.1 |
| 20260502022638 | 16 | 252 | 12.9 | 12.9 | 0.00 | 12.93 | 7.49 | 34 | 825.4 |
| 20260502022118 | 16 | 285 | 12.9 | 24.1 | 0.00 | 12.93 | 7.49 | 34 | 825.4 |
| 20260502021659 | 16 | 282 | 12.9 | 12.9 | 0.00 | 12.93 | 7.49 | 33 | 825.4 |
| 20260502021118 | 16 | 234 | 12.9 | 22.5 | 0.00 | 12.93 | 7.49 | 33 | 825.4 |
| 20260502020618 | 17 | 275 | 12.9 | 19.3 | 0.00 | 12.93 | 7.49 | 33 | 825.4 |
| 20260502020117 | 17 | 282 | 12.9 | 24.1 | 0.00 | 12.93 | 7.49 | 33 | 825.4 |
| 20260502015637 | 17 | 281 | 12.9 | 17.7 | 0.00 | 12.93 | 7.49 | 32 | 825.1 |
| 20260502015117 | 17 | 287 | 11.3 | 17.7 | 0.00 | 12.93 | 7.49 | 32 | 825.1 |
| 20260502014617 | 17 | 289 | 12.9 | 17.7 | 0.00 | 12.93 | 7.49 | 31 | 825.1 |
| 20260502014118 | 17 | 319 | 12.9 | 17.7 | 0.00 | 12.93 | 7.49 | 31 | 825.1 |
| 20260502013617 | 17 | 280 | 12.9 | 17.7 | 0.00 | 12.93 | 7.49 | 31 | 825.1 |
| 20260502013136 | 17 | 297 | 12.9 | 20.9 | 0.00 | 12.93 | 7.49 | 31 | 825.1 |
| 20260502012616 | 17 | 274 | 14.5 | 14.5 | 0.00 | 12.93 | 7.49 | 31 | 825.1 |
| 20260502012116 | 17 | 281 | 16.1 | 22.5 | 0.00 | 12.93 | 7.49 | 31 | 824.7 |
| 20260502011617 | 18 | 255 | 14.5 | 24.1 | 0.00 | 12.93 | 7.49 | 31 | 825.1 |
| 20260502011116 | 18 | 275 | 16.1 | 24.1 | 0.00 | 12.93 | 7.49 | 31 | 825.1 |
| 20260502010616 | 18 | 283 | 12.9 | 22.5 | 0.00 | 12.93 | 7.49 | 30 | 825.1 |
| 20260502010115 | 18 | 281 | 9.7 | 16.1 | 0.00 | 12.93 | 7.49 | 31 | 825.1 |
| 20260502005615 | 18 | 281 | 9.7 | 9.7 | 0.00 | 12.93 | 7.49 | 30 | 825.1 |
| 20260502005115 | 18 | 312 | 11.3 | 20.9 | 0.00 | 12.93 | 7.49 | 30 | 825.1 |
| 20260502004615 | 18 | 240 | 11.3 | 11.3 | 0.00 | 12.93 | 7.49 | 30 | 825.1 |
| 20260502004114 | 18 | 274 | 9.7 | 17.7 | 0.00 | 12.93 | 7.49 | 30 | 825.1 |
| 20260502003615 | 18 | 266 | 9.7 | 17.7 | 0.00 | 12.93 | 7.49 | 30 | 825.1 |
| 20260502003114 | 18 | 282 | 12.9 | 16.1 | 0.00 | 12.93 | 7.49 | 29 | 825.1 |
| 20260502002514 | 18 | 301 | 16.1 | 16.1 | 0.00 | 12.93 | 7.49 | 30 | 825.1 |
| 20260502001914 | 19 | 283 | 16.1 | 24.1 | 0.00 | 12.93 | 7.49 | 29 | 825.4 |
| 20260502001334 | 19 | 285 | 14.5 | 14.5 | 0.00 | 12.93 | 7.49 | 28 | 825.4 |
| 20260502000715 | 19 | 277 | 14.5 | 17.7 | 0.00 | 12.93 | 7.49 | 28 | 825.4 |
| 20260502000155 | 19 | 297 | 17.7 | 25.7 | 0.00 | 12.93 | 7.49 | 27 | 825.4 |
| 20260501235514 | 20 | 310 | 17.7 | 24.1 | 0.00 | 12.93 | 7.49 | 27 | 825.4 |
| 20260501234914 | 20 | 125 | 12.9 | 17.7 | 0.00 | 12.93 | 7.49 | 28 | 825.4 |
| 20260501234314 | 20 | 265 | 12.9 | 14.5 | 0.00 | 12.93 | 7.49 | 29 | 825.5 |
| 20260501233713 | 20 | 268 | 11.3 | 14.5 | 0.00 | 12.93 | 7.49 | 28 | 825.4 |
| 20260501233154 | 20 | 284 | 8.0 | 12.9 | 0.00 | 12.93 | 7.49 | 29 | 825.5 |
| 20260501232513 | 20 | 273 | 9.7 | 12.9 | 0.00 | 12.93 | 7.49 | 28 | 825.4 |
| 20260501231913 | 20 | 333 | 12.9 | 20.9 | 0.00 | 12.93 | 7.49 | 29 | 825.8 |
| 20260501231314 | 20 | 297 | 11.3 | 20.9 | 0.00 | 12.93 | 7.49 | 29 | 825.8 |
| 20260501230713 | 20 | 256 | 11.3 | 17.7 | 0.00 | 12.93 | 7.49 | 29 | 825.8 |
| 20260501230113 | 20 | 297 | 16.1 | 17.7 | 0.00 | 12.93 | 7.49 | 28 | 825.8 |
| 20260501225512 | 20 | 293 | 14.5 | 16.1 | 0.00 | 12.93 | 7.49 | 29 | 825.8 |
| 20260501224932 | 21 | 287 | 9.7 | 12.9 | 0.00 | 12.93 | 7.49 | 28 | 826.2 |
| 20260501224311 | 21 | 308 | 8.0 | 12.9 | 0.00 | 12.93 | 7.49 | 28 | 826.2 |
| 20260501223712 | 21 | 33 | 8.0 | 12.9 | 0.00 | 12.93 | 7.49 | 27 | 826.1 |
| 20260501223111 | 21 | 329 | 11.3 | 20.9 | 0.00 | 12.93 | 7.49 | 28 | 826.5 |
| 20260501222511 | 21 | 275 | 11.3 | 20.9 | 0.00 | 12.93 | 7.49 | 27 | 826.5 |
| 20260501221911 | 21 | 239 | 11.3 | 16.1 | 0.00 | 12.93 | 7.49 | 28 | 826.5 |
| 20260501221311 | 21 | 291 | 8.0 | 17.7 | 0.00 | 12.93 | 7.49 | 28 | 826.5 |
| 20260501220711 | 21 | 283 | 8.0 | 8.0 | 0.00 | 12.93 | 7.49 | 28 | 826.5 |
| 20260501220131 | 21 | 309 | 8.0 | 20.9 | 0.00 | 12.93 | 7.49 | 29 | 826.5 |
| 20260501215510 | 21 | 16 | 9.7 | 19.3 | 0.00 | 12.93 | 7.49 | 30 | 826.9 |
| 20260501214911 | 20 | 251 | 11.3 | 19.3 | 0.00 | 12.93 | 7.49 | 30 | 826.2 |
| 20260501214331 | 20 | 229 | 14.5 | 14.5 | 0.00 | 12.93 | 7.49 | 30 | 826.2 |
| 20260501213710 | 20 | 285 | 16.1 | 22.5 | 0.00 | 12.93 | 7.49 | 30 | 826.5 |
| 20260501213130 | 20 | 282 | 9.7 | 25.7 | 0.00 | 12.93 | 7.49 | 31 | 826.5 |
| 20260501212530 | 20 | 274 | 6.4 | 19.3 | 0.00 | 12.93 | 7.49 | 30 | 826.8 |
| 20260501211911 | 20 | 318 | 8.0 | 19.3 | 0.00 | 12.93 | 7.49 | 32 | 826.9 |
| 20260501211330 | 20 | 264 | 11.3 | 19.3 | 0.00 | 12.93 | 7.49 | 30 | 827.2 |
| 20260501210710 | 20 | 270 | 9.7 | 19.3 | 0.00 | 12.93 | 7.49 | 31 | 826.9 |
| 20260501210110 | 20 | 266 | 8.0 | 19.3 | 0.00 | 12.93 | 7.49 | 31 | 826.8 |
| 20260501205510 | 20 | 285 | 9.7 | 19.3 | 0.00 | 12.93 | 7.49 | 31 | 827.2 |
| 20260501204910 | 20 | 251 | 11.3 | 19.3 | 0.00 | 12.93 | 7.49 | 30 | 827.2 |
| 20260501204309 | 20 | 299 | 11.3 | 11.3 | 0.00 | 12.93 | 7.49 | 32 | 827.2 |
| 20260501203709 | 20 | 274 | 11.3 | 19.3 | 0.00 | 12.93 | 7.49 | 30 | 827.1 |
| 20260501203109 | 20 | 284 | 11.3 | 19.3 | 0.00 | 12.93 | 7.49 | 32 | 827.2 |
| 20260501202509 | 20 | 267 | 9.7 | 19.3 | 0.00 | 12.93 | 7.49 | 30 | 827.1 |
| 20260501201909 | 20 | 243 | 8.0 | 19.3 | 0.00 | 12.93 | 7.49 | 33 | 827.2 |
| 20260501201309 | 20 | 307 | 8.0 | 8.0 | 0.00 | 12.93 | 7.49 | 31 | 827.2 |
| 20260501200708 | 20 | 266 | 11.3 | 19.3 | 0.00 | 12.93 | 7.49 | 34 | 827.2 |
| 20260501200109 | 20 | 294 | 8.0 | 19.3 | 0.00 | 12.93 | 7.49 | 32 | 827.2 |
| 20260501195508 | 20 | 256 | 8.0 | 19.3 | 0.00 | 12.93 | 7.49 | 34 | 826.2 |
| 20260501194908 | 20 | 288 | 8.0 | 19.3 | 0.00 | 12.93 | 7.49 | 32 | 826.2 |
| 20260501194308 | 20 | 29 | 8.0 | 8.0 | 0.00 | 12.93 | 7.49 | 31 | 826.2 |
| 20260501193709 | 20 | 243 | 6.4 | 19.3 | 0.00 | 12.93 | 7.49 | 34 | 826.2 |
| 20260501193108 | 19 | 289 | 4.8 | 19.3 | 0.00 | 12.93 | 7.49 | 35 | 825.9 |
| 20260501192507 | 19 | 279 | 6.4 | 19.3 | 0.00 | 12.93 | 7.49 | 33 | 825.8 |
| 20260501191908 | 20 | 290 | 4.8 | 19.3 | 0.00 | 12.93 | 7.49 | 33 | 826.2 |
| 20260501191307 | 20 | 245 | 4.8 | 19.3 | 0.00 | 12.93 | 7.49 | 34 | 826.6 |
| 20260501190707 | 19 | 8 | 8.0 | 19.3 | 0.00 | 12.93 | 7.49 | 35 | 826.2 |
| 20260501190107 | 19 | 257 | 8.0 | 19.3 | 0.00 | 12.93 | 7.49 | 35 | 826.2 |
| 20260501185507 | 19 | 254 | 4.8 | 8.0 | 0.00 | 12.93 | 7.49 | 34 | 826.9 |
| 20260501184907 | 18 | 34 | 4.8 | 19.3 | 0.00 | 12.93 | 7.49 | 37 | 826.6 |
| 20260501184327 | 18 | 339 | 4.8 | 19.3 | 0.00 | 12.93 | 7.49 | 37 | 826.5 |
| 20260501183707 | 18 | 280 | 4.8 | 19.3 | 0.00 | 12.93 | 7.49 | 38 | 826.6 |
| 20260501183107 | 17 | 274 | 4.8 | 19.3 | 0.00 | 12.93 | 7.49 | 38 | 826.2 |
| 20260501182507 | 17 | 270 | 6.4 | 19.3 | 0.00 | 12.93 | 7.49 | 38 | 826.2 |
| 20260501181906 | 17 | 268 | 8.0 | 19.3 | 0.00 | 12.93 | 7.49 | 41 | 825.6 |
| 20260501181306 | 17 | 283 | 9.7 | 19.3 | 0.00 | 12.93 | 7.49 | 39 | 825.5 |
| 20260501180727 | 17 | 258 | 9.7 | 19.3 | 0.00 | 12.93 | 7.49 | 39 | 825.5 |
| 20260501180106 | 17 | 266 | 4.8 | 19.3 | 0.00 | 12.93 | 7.49 | 39 | 825.9 |
| 20260501175506 | 17 | 258 | 4.8 | 19.3 | 0.00 | 12.93 | 7.49 | 39 | 825.9 |
| 20260501174906 | 17 | 311 | 4.8 | 19.3 | 0.00 | 12.93 | 7.49 | 37 | 825.8 |
| 20260501174306 | 17 | 266 | 3.2 | 19.3 | 0.00 | 12.93 | 7.49 | 38 | 825.9 |
| 20260501173706 | 17 | 339 | 3.2 | 19.3 | 0.00 | 12.93 | 7.49 | 38 | 825.5 |
| 20260501173106 | 17 | 250 | 4.8 | 19.3 | 0.00 | 12.93 | 7.49 | 43 | 825.6 |
| 20260501172505 | 17 | 230 | 4.8 | 19.3 | 0.00 | 12.93 | 7.49 | 40 | 825.5 |
| 20260501171905 | 16 | 289 | 3.2 | 19.3 | 0.00 | 12.93 | 7.49 | 41 | 825.5 |
| 20260501171306 | 16 | 2 | 4.8 | 19.3 | 0.00 | 12.93 | 7.49 | 40 | 825.2 |
| 20260501170705 | 16 | 281 | 4.8 | 19.3 | 0.00 | 12.93 | 7.49 | 39 | 825.1 |
| 20260501170105 | 16 | 276 | 4.8 | 19.3 | 0.00 | 12.93 | 7.49 | 39 | 825.1 |
| 20260501165505 | 16 | 263 | 4.8 | 19.3 | 0.00 | 12.93 | 7.49 | 43 | 825.2 |
| 20260501164905 | 15 | 297 | 8.0 | 19.3 | 0.00 | 12.93 | 7.49 | 43 | 824.9 |
| 20260501164305 | 15 | 292 | 6.4 | 19.3 | 0.00 | 12.93 | 7.49 | 44 | 824.9 |
| 20260501163704 | 15 | 279 | 8.0 | 19.3 | 0.00 | 12.93 | 7.49 | 47 | 824.9 |
| 20260501163104 | 15 | 308 | 8.0 | 19.3 | 0.00 | 12.93 | 7.49 | 44 | 824.8 |
| 20260501161945 | 15 | 276 | 6.4 | 19.3 | 0.00 | 12.93 | 7.49 | 47 | 824.9 |
| 20260501161304 | 15 | 291 | 8.0 | 8.0 | 0.00 | 12.93 | 7.49 | 44 | 824.8 |
| 20260501160725 | 15 | 281 | 6.4 | 19.3 | 0.00 | 12.93 | 7.49 | 47 | 824.6 |
| 20260501160104 | 15 | 296 | 6.4 | 19.3 | 0.00 | 12.93 | 7.49 | 45 | 824.5 |
| 20260501155544 | 15 | 289 | 4.8 | 19.3 | 0.00 | 12.93 | 7.49 | 45 | 824.5 |
| 20260501154903 | 15 | 312 | 4.8 | 19.3 | 0.00 | 12.93 | 7.49 | 45 | 824.5 |
| 20260501154303 | 15 | 322 | 4.8 | 4.8 | 0.00 | 12.93 | 7.49 | 42 | 824.5 |
| 20260501153703 | 15 | 6 | 4.8 | 19.3 | 0.00 | 12.93 | 7.49 | 46 | 824.5 |
| 20260501153103 | 14 | 25 | 4.8 | 19.3 | 0.00 | 12.93 | 7.49 | 41 | 823.8 |
| 20260501152503 | 14 | 327 | 4.8 | 19.3 | 0.00 | 12.93 | 7.49 | 46 | 823.8 |
| 20260501151903 | 13 | 340 | 4.8 | 19.3 | 0.00 | 12.93 | 7.49 | 43 | 823.8 |
| 20260501151303 | 13 | 2 | 6.4 | 19.3 | 0.00 | 12.93 | 7.49 | 46 | 823.5 |
| 20260501150743 | 13 | 24 | 6.4 | 19.3 | 0.00 | 12.93 | 7.49 | 46 | 823.5 |
| 20260501145522 | 13 | 345 | 4.8 | 12.9 | 0.00 | 12.93 | 7.49 | 44 | 823.5 |
| 20260501144902 | 13 | 331 | 3.2 | 19.3 | 0.00 | 12.93 | 7.49 | 44 | 824.8 |
| 20260501144302 | 13 | 261 | 1.6 | 19.3 | 0.00 | 12.93 | 7.49 | 46 | 824.2 |
| 20260501143102 | 13 | 359 | 3.2 | 19.3 | 0.00 | 12.93 | 7.49 | 47 | 824.2 |
| 20260501142503 | 12 | 29 | 3.2 | 19.3 | 0.00 | 12.93 | 7.49 | 48 | 824.2 |